Hourly Data Report for October 16, 2015

All times are specified in Local Standard Time (LST). Add 1 hour to adjust for Daylight Saving Time where and when it is observed.

KUGAARUK CLIMATE
NUNAVUT

68°32'15.060" N
89°47'47.020" W
15.80 m
2303094
71407
NBB

Download Data

Hourly Data (October 2015)
Hourly Data Report for October 16, 2015
Temp Definition
°C
Dew Point Temp Definition
°C
Rel Hum Definition
%
Wind Dir Definition
10's deg

Wind Spd Definition
km/h
Visibility Definition
km
Stn Press Definition
kPa
Hmdx Definition


Wind Chill Definition


Weather Definition


TIME
00:00 -10.4 -14.1 74 31 31   100.79   -20 LegendNANA
01:00 -9.9 -13.9 73 31 35   100.80   -20 LegendNANA
02:00 -9.7 -13.2 75 31 32   100.80   -19 LegendNANA
03:00 -9.4 -13.2 74 32 27   100.87   -18 LegendNANA
04:00 -8.1 -11.3 78 29 29   100.85   -17 LegendNANA
05:00 -8.0 -10.4 83 27 29   100.83   -17 LegendNANA
06:00 -7.8 -9.8 85 27 32   100.80   -17 LegendNANA
07:00 -7.0 -9.5 82 29 24   100.78   -15 LegendNANA
08:00 -7.7 -11.6 74 32 23   100.86   -15 LegendNANA
09:00 -7.5 -10.6 78 32 19   100.93   -15 LegendNANA
10:00 -6.5 -9.3 80 31 23   100.96   -14 LegendNANA
11:00 -5.9 -9.4 76 30 24   100.97   -13 LegendNANA
12:00 -5.7 -9.2 76 30 23   101.02   -13 LegendNANA
13:00 -5.6 -9.0 77 30 24   101.08   -13 LegendNANA
14:00 -5.8 -8.4 81 32 21   101.13   -13 LegendNANA
15:00 -5.5 -8.0 82 31 24   101.13   -13 LegendNANA
16:00 -5.1 -7.6 82 30 24   101.16   -12 LegendNANA
17:00 -5.0 -7.6 82 30 23   101.17   -12 LegendNANA
18:00 -5.0 -8.0 80 31 22   101.18   -12 LegendNANA
19:00 -5.2 -7.5 84 30 22   101.15   -12 LegendNANA
20:00 -5.2 -7.6 83 29 24   101.14   -12 LegendNANA
21:00 -5.0 -7.6 82 29 27   101.11   -13 LegendNANA
22:00 -5.1 -7.6 82 31 28   101.11   -13 LegendNANA
23:00 -5.1 -7.6 82 30 26   101.11   -13 LegendNANA

Notes on Data Quality.

Legend

  • E = Estimated
  • M = Missing
  • NA = Not Available
  • ‡ = Partner data that is not subject to review by the National Climate Archives
Date modified: